Back to catalog

DELTA 1 DEB

AliveSSO
NORAD 37648·DEBRIS·🇺🇸 United States

Launched Mar 5, 1978 from Vandenberg Space Force Base

Loading…

Next Passes (next 24 hours)

TLE

FreshSource: Space-Track

Epoch: Sep 11, 2026, 17:42 UTC

1 37648U 78026JK  26254.73781604  .00000104  00000-0  54827-4 0  9991
2 37648  98.8128 248.9474 0102467  84.9050  88.5888 14.29763248688294

Track DELTA 1 DEB in real time with AllMySat

Download on the App Store